Cosmos 2151 - Orbit

View from above orbital plane
View from above orbital plane
View from above satellite
View from above satellite

Ground track
Ground track

The orbit data is extracted from the following two-line orbital elements,

1 21422U 91042A   13140.77587323  .00001030  00000-0  10634-3 0  5827
2 21422 082.5034 220.4712 0014789 210.4753 149.5608 14.89146994186748
Epoch (UTC): 20 May 2013 18:37:15
Eccentricity: 0.0014789
inclination: 82.5034°
perigee height: 590 km
apogee height: 611 km
right ascension of ascending node: 220.4712°
argument of perigee: 210.4753°
revolutions per day: 14.89146994
mean anomaly at epoch: 149.5608°
orbit number at epoch: 18674

The dashed part of the orbit path shows where the satellite is in the earth's shadow,  

Developed and maintained by Chris Peat, Heavens-Above GmbH. Please read the updated FAQ before sending e-mail. Imprint. DLR